AirNav   Everest Fuels
 
 974 users online  

KVLL Oakland/Troy Airport
Troy, Michigan, USA

GOING TO TROY?


FAA INFORMATION EFFECTIVE 26 MARCH 2020

Location

FAA Identifier: VLL
Lat/Long: 42-32-34.6000N 083-10-40.4000W
42-32.576667N 083-10.673333W
42.5429444,-83.1778889
(estimated)
Elevation: 727.2 ft. / 221.7 m (surveyed)
Variation: 06W (1995)
From city: 2 miles E of TROY, MI
Time zone: UTC -4 (UTC -5 during Standard Time)
Zip code: 48084

Airport Operations

Airport use: Open to the public
Control tower: no
ARTCC: CLEVELAND CENTER
FSS: LANSING FLIGHT SERVICE STATION
NOTAMs facility: VLL (NOTAM-D service available)
Attendance: 0800-1800
Pattern altitude: 1727.2 ft. MSL
Wind indicator: lighted
Segmented circle: no
Lights: ACTVT MIRL RY 09/27 & PAPI RYS 09 & 27 - CTAF.
Beacon: white-green (lighted land airport)
Operates sunset to sunrise.
Landing fee: yes

Airport Communications

CTAF/UNICOM: 123.05
WX AWOS-3: 119.475 (248-288-4649)
DETROIT APPROACH: 134.3
DETROIT DEPARTURE: 134.3
WX ASOS at DET (11 nm SE): PHONE 313-371-9696
WX ASOS at PTK (13 nm NW): 125.025 (248-886-8551)

Nearby radio navigation aids

VOR radial/distance  VOR name  Freq  Var
SVMr069/20.1SALEM VORTAC114.3003W
DXOr029/21.5DETROIT VOR/DME113.4006W
YQGr325/23.4WINDSOR VOR/DME113.8006W
CRLr026/32.2CARLETON VOR/DME115.7003W
FNTr141/35.7FLINT VORTAC116.9006W

 
NDB name  Hdg/Dist  Freq  Var  ID
GROSSE ILE005/26.541907WRYS .-. -.-- ...

Airport Services

Fuel available: 100LL JET-A
Parking: tiedowns
Airframe service: NONE
Powerplant service: NONE

Runway Information

Runway 9/27

Dimensions: 3549 x 60 ft. / 1082 x 18 m
Surface: asphalt, in fair condition
Runway edge lights: medium intensity
RUNWAY 9  RUNWAY 27
Latitude: 42-32.575973N42-32.578848N
Longitude: 083-11.068925W083-10.278788W
Elevation: 727.0 ft.701.0 ft.
Traffic pattern: leftleft
Runway heading: 096 magnetic, 090 true276 magnetic, 270 true
Markings: nonprecision, in good conditionnonprecision, in good condition
Visual slope indicator: 2-light PAPI on right (3.75 degrees glide path)2-light PAPI on left (3.75 degrees glide path)
Runway end identifier lights: nono
Touchdown point: yes, no lightsyes, no lights
Obstructions: 19 ft. tree, 207 ft. from runway, 137 ft. right of centerline30 ft. tree, 200 ft. from runway, 125 ft. left of centerline

Airport Ownership and Management from official FAA records

Ownership: Publicly-owned
Owner: OAKLAND COUNTY
6500 HIGHLAND ROAD
WATERFORD, MI 48327
Phone (248) 288-6100
ARPT PHONE 248-666-3900
Manager: CHERYL BUSH
6500 HIGHLAND RD
WATERFORD, MI 48327
Phone 248-666-3900

Airport Operational Statistics

Aircraft based on the field: 112
Single engine airplanes: 102
Multi engine airplanes: 4
Helicopters: 5
Ultralights: 1
    
Aircraft operations: avg 82/day *
50% transient general aviation
50% local general aviation
* for 12-month period ending 31 December 2019

Additional Remarks

DEER AND BIRDS ON & INVOF ARPT.
RY 09 +3 FT BERM 316 FT FM THLD.
NO TGL OR PRACTICE TFC PATTERNS.
FOR CD CTC DETROIT APCH AT 800-499-8181.

Instrument Procedures

NOTE: All procedures below are presented as PDF files. If you need a reader for these files, you should download the free Adobe Reader.

NOT FOR NAVIGATION. Please procure official charts for flight.
FAA instrument procedures published for use from 26 March 2020 at 0901Z to 23 April 2020 at 0900Z.

 
STARs - Standard Terminal Arrivals
FOREY TWO (RNAV)   download (153KB)
OKLND ONE (RNAV)   download (129KB)
PETTE TWO (RNAV)   download (195KB)
RRALF TWO (RNAV)   download (154KB)
 
IAPs - Instrument Approach Procedures
RNAV (GPS) RWY 09   download (161KB)
 
Departure Procedures
BARII TWO (RNAV)   download (139KB)
CCOBB TWO (RNAV)   download (183KB)
CLVIN TWO (RNAV)   download (153KB)
HHOWE THREE (RNAV)   download (171KB)
KAYLN TWO (RNAV)   download (149KB)
LIDDS TWO (RNAV)   download (164KB)
MIGGY TWO (RNAV)   download (183KB)
PAVYL TWO (RNAV)   download (158KB)
SNDRS TWO (RNAV)   download (195KB)
TRMML THREE (RNAV)   download (144KB)
ZETTR THREE (RNAV)   download (186KB)
NOTE: Special Take-Off Minimums/Departure Procedures apply   download (125KB)

Other nearby airports with instrument procedures:

KDET - Coleman A Young Municipal Airport (11 nm SE)
KPTK - Oakland County International Airport (13 nm NW)
KMTC - Selfridge Air National Guard Base (16 nm E)
1D2 - Canton-Plymouth-Mettetal Airport (17 nm SW)
57D - Ray Community Airport (17 nm NE)
D98 - Romeo State Airport (18 nm NE)
Y47 - Oakland Southwest Airport (20 nm W)
 
Loc | Ops | Rwys | IFR | FBO | Links
Com | Nav | Svcs | Stats | Notes
Area around KVLL (Oakland/Troy Airport)
 
Road maps at: MapQuest Bing Google
 
Aerial photo
WARNING: Photo may not be current or correct
Aerial photo of KVLL (Oakland/Troy Airport)
Photo by Jeff Schuster
Photo taken 29-Jun-2014
looking west.

Do you have a better or more recent aerial photo of Oakland/Troy Airport that you would like to share? If so, please send us your photo.

 
Sectional chart

 
Airport distance calculator
Flying to Oakland/Troy Airport? Find the distance to fly.

From to KVLL

Sunrise and sunset
Times for 01-Apr-2020
 Local
(UTC-4)
 Zulu
(UTC)
Morning civil twilight06:4610:46
Sunrise07:1411:14
Sunset19:5823:58
Evening civil twilight20:2700:27

Current date and time
Zulu (UTC)  01-Apr-2020 14:03:23
Local (UTC-4)  01-Apr-2020 10:03:23
 
METAR
KVLL 011356Z AUTO 01003KT 10SM BKN023 BKN029 OVC075 06/04 A3003 RMK AO2 T00620042
KDET 
11nm SE 
011353Z 01007KT 10SM SCT013 BKN031 OVC075 07/03 A3001 RMK AO2 SLP166 T00670033 $
KPTK 
13nm NW 
011353Z 01006KT 9SM BKN010 BKN024 OVC060 06/03 A3000 RMK AO2 SLP164 CIG 008V012 BKN010 V SCT T00560033
KMTC 
17nm E 
011356Z 03010KT 10SM SCT014 SCT026 BKN075 07/07 A2999 RMK AO2A SLP164 T00670067 $
CYQG 
19nm SE 
011300Z AUTO 01005KT 9SM SCT034 OVC075 06/04 A3000 RMK SLP165
KDTW 
20nm S 
011353Z 36008KT 5SM HZ FEW014 OVC024 06/03 A3001 RMK AO2 SLP166 T00610033
TAF
KDET 
11nm SE 
011120Z 0112/0212 01006KT P6SM BKN010 OVC025 FM011800 35006KT P6SM OVC035 FM020000 34006KT P6SM BKN040 FM020300 33004KT P6SM SCT045
KPTK 
13nm NW 
011120Z 0112/0212 01006KT P6SM BKN008 OVC025 FM011800 35006KT P6SM OVC035 FM020000 34006KT P6SM BKN040 FM020300 33004KT P6SM SCT045
KMTC 
17nm E 
011135Z 0111/0215 36009KT 9999 BKN025 OVC040 620355 QNH2994INS BECMG 0200/0201 01009KT 9999 SCT030 QNH2999INS BECMG 0212/0213 33012G18KT 9999 SKC QNH3010INS TX09/0121Z TN02/0209Z
CYQG 
19nm SE 
011138Z 0112/0212 02006KT P6SM SCT030 OVC070 TEMPO 0112/0115 OVC020 PROB30 0112/0115 5SM -DZ BR BKN008 OVC015 FM011500 02008KT P6SM OVC025 TEMPO 0115/0118 OVC015 FM011800 02010KT P6SM OVC030 TEMPO 0118/0122 P6SM -SHRA OVC020 FM020200 36005KT P6SM BKN025 FM020800 30006KT P6SM FEW020 PROB30 0209/0212 1SM BR RMK FCST BASED ON AUTO OBS. NXT FCST BY 011800Z
KDTW 
20nm S 
011120Z 0112/0218 01006KT P6SM BKN010 OVC025 FM011800 35006KT P6SM OVC035 FM020000 34006KT P6SM BKN040 FM020300 33004KT P6SM SCT045
NOTAMs
Click for the latest NOTAMs
NOTAMs are issued by the DoD/FAA and will open in a separate window not controlled by AirNav.

 

 
 

FBO, Fuel Providers, and Aircraft Ground Support

  
 Business Name 
 
 Contact 
 
 Services / Description 
 
Fuel Prices
 
Comments
  
JDS Pump-N-Go 248-288-6100
[email]
Aviation fuel, Aircraft parking (ramp or tiedown), Hangar leasing / sales

More info about JDS Pump-N-Go
Avfuel
100LL Jet A
SS $5.40 $4.40 
 Updated 19-Mar-2020
 
   write
24HRFUEL.com 248-221-2433
no information available

If you are affiliated with 24HRFUEL.com and would like to show here your services, contact info, web link, logo, and more, click here
100LL Jet A
SS $5.19 $1.99 
 Updated 06-Mar-2020
 
   2 read write
SS=Self service
Update Fuel Prices
 

Would you like to see your business listed on this page?

 If your business provides an interesting product or service to pilots, flight crews, aircraft, or users of the Oakland/Troy Airport, you should consider listing it here.  To start the listing process, click on the button below
 
Add a business
 

Other Pages about Oakland/Troy Airport

Oakland/Troy Airport Website
Page from the Michigan Airport Directory (PDF)
 
Update a link
 
Copyright © AirNav, LLC. All rights reserved. Privacy Policy  Contact